This is the latest recevied weather packets stored in our database for station/object KN6ZYR. If no packets are shown the sender has not sent any weather packets the latest 10 day(s).
| Time | Temp. | Humidity | Pressure | Rain* | Wind** | Luminosity | Snow |
|---|---|---|---|---|---|---|---|
| 1777520875 | 14.44° C | 37% | 1020 hPa | 0 mm | - | 0 W/m² | - |
| 1777520572 | 14.44° C | 36% | 1020.1 hPa | 0 mm | - | 0 W/m² | - |
| 1777520269 | 15° C | 34% | 1020 hPa | 0 mm | - | 0 W/m² | - |
| 1777519967 | 15° C | 34% | 1020.1 hPa | 0 mm | - | 0 W/m² | - |
| 1777519664 | 15° C | 35% | 1019.8 hPa | 0 mm | - | 0 W/m² | - |
| 1777519360 | 15° C | 34% | 1019.7 hPa | 0 mm | - | 0 W/m² | - |
| 1777519057 | 15° C | 33% | 1019.8 hPa | 0 mm | - | 0 W/m² | - |
| 1777518753 | 15° C | 34% | 1019.5 hPa | 0 mm | - | 0 W/m² | - |
| 1777518450 | 15° C | 33% | 1019.3 hPa | 0 mm | - | 0 W/m² | - |
| 1777518145 | 15° C | 33% | 1019.5 hPa | 0 mm | - | 0 W/m² | - |
| 1777517841 | 15.56° C | 33% | 1019.2 hPa | 0 mm | - | 0 W/m² | - |
| 1777517537 | 16.11° C | 31% | 1019.1 hPa | 0 mm | - | 1 W/m² | - |
| 1777517236 | 16.11° C | 29% | 1019.3 hPa | 0 mm | - | 2 W/m² | - |
| 1777516935 | 16.67° C | 31% | 1019 hPa | 0 mm | - | 3 W/m² | - |
| 1777516631 | 17.22° C | 29% | 1018.9 hPa | 0 mm | - | 5 W/m² | - |
| 1777516327 | 17.78° C | 28% | 1018.8 hPa | 0 mm | - | 8 W/m² | - |
| 1777516022 | 18.33° C | 26% | 1018.9 hPa | 0 mm | - | 10 W/m² | - |
| 1777515720 | 18.89° C | 25% | 1018.8 hPa | 0 mm | - | 13 W/m² | - |
| 1777515416 | 19.44° C | 26% | 1018.7 hPa | 0 mm | - | 16 W/m² | - |
| 1777515113 | 20° C | 23% | 1018.7 hPa | 0 mm | - | 19 W/m² | - |
| 1777514809 | 20° C | 21% | 1018.7 hPa | 0 mm | - | 21 W/m² | - |
| 1777514506 | 20.56° C | 22% | 1018.7 hPa | 0 mm | - | 23 W/m² | - |
| 1777514204 | 20.56° C | 20% | 1018.8 hPa | 0 mm | - | 26 W/m² | - |
| 1777513899 | 20.56° C | 21% | 1018.7 hPa | 0 mm | - | 28 W/m² | - |
| 1777513597 | 21.11° C | 21% | 1018.5 hPa | 0 mm | - | 28 W/m² | - |
* Rain latest hour (hover to see other rain measurements)
** Current wind speed in m/s (hover to see current wind gust speed)